Other Surface Observations
Issued by NWS Charleston, SC

Home | Current Version | Previous Version | Text Only | Print | Product List | Glossary On
Versions: 1 2 3 4 5 6 7 8 9 10 11 12 13 14 15 16 17 18 19 20 21 22 23 24 25 26 27 28 29 30 31 32 33 34 35 36 37 38 39 40 41 42 43 44 45 46 47 48 49 50
000
SXUS52 KCHS 191027
OSOCHS

Marine Observations
National Weather Service Charleston SC
600 AM EDT MON AUG 19 2019

...Downtown Charleston and Harbor...

CITY           SKY/WX    TMP DP  RH WIND       PRES   REMARKS
Waterfront Prk   N/A     78  75  90 VRB2      29.89S

...Lake Moultrie...

CITY           SKY/WX    TMP DP  RH WIND       PRES   REMARKS
Pinopolis        N/A     77  75  94 SW7       29.98R

...Lake and Supplemental Coastal Observations...

STATION/POSITION TIME  TEMP    WIND        PRES    WAVE   SWELL
                       AIR SEA DIR/SP/G            HT/PER HT/PER/DIR
                 (UTC) (F)     (DEG/KT/KT) (MB)    (FT/S) (FT/S/D)
Chrlstn Harbor   0936   79 85  260/  3/  5 1017.4F
Fort Pulaski     0936   77 84  240/  2/  2 1018.2R
Sapelo Island    1000   76     210/  8     1018.0
Winyah Bay       0945   77     250/  3     1017.0S
Lake Murray      1020   79     220/  6/  7 1016.6
ACE Basin NERRS  0945   76        CALM     1018.0S


...C-MAN and Buoy Observations...

STATION/POSITION TIME  TEMP    WIND        PRES    WAVE   SWELL
                       AIR SEA DIR/SP/G            HT/PER HT/PER/DIR
                 (UTC) (F)     (DEG/KT/KT) (MB)    (FT/S) (FT/S/D)
Buoy 41004       1010   81 82  230/ 12/ 14 1017.7
Buoy 41008       0950   80 82  230/ 12/ 14 1017.5R   2/ 4   2/130/ 8
Folly Beach CMAN 1000   77     250/  4/  5 1017.9S
Pritchards Islan NOT AVBL
Capers NS Buoy   1008   80 84  280/ 10/ 14 1017.6R
Fripp NS Buoy    1008   80 84  260/ 12/ 16 1017.7R
5E St. Marys GA  1000      81                N/A     2/ 9


STATION/POSITION TIME  TEMP    WIND        PRES    WAVE   SWELL
                       AIR SEA DIR/SP/G            HT/PER HT/PER/DIR
                 (UTC) (F)     (DEG/KT/KT) (MB)    (FT/S) (FT/S/D)
Frying Pan Buoy  1010   82 82  240/ 12/ 16 1017.5
Buoy 41025       1010   82 84  260/ 14/ 16 1016.6
Cape Lookout NC  1000   81     260/ 11/ 13 1017.2R
Buoy 41002       1010   83     250/  8/ 10 1019.6
Buoy 41010       1010   84 86  120/  6/  8 1018.7
St Augustine FL  1000   75 80  200/  7/  8 1018.1S

$$



USA.gov is the U.S. government's official web portal to all federal, state and local government web resources and services.